This is the latest recevied weather packets stored in our database for station/object KE5KUL-13. If no packets are shown the sender has not sent any weather packets the latest 10 day(s).
| Time | Temp. | Humidity | Pressure | Rain* | Wind** | Luminosity | Snow |
|---|---|---|---|---|---|---|---|
| 1777992618 | 15° C | 45% | 1010.6 hPa | 0 mm | - | - | - |
| 1777992018 | 14.44° C | 46% | 1010.8 hPa | 0 mm | - | - | - |
| 1777991418 | 13.89° C | 46% | 1010.7 hPa | 0 mm | - | - | - |
| 1777990818 | 13.33° C | 48% | 1010.3 hPa | 0 mm | - | - | - |
| 1777989618 | 12.22° C | 50% | 1010.5 hPa | 0 mm | - | - | - |
| 1777989018 | 12.22° C | 50% | 1010 hPa | 0 mm | - | - | - |
| 1777988418 | 11.67° C | 51% | 1009.8 hPa | 0 mm | - | - | - |
| 1777987818 | 11.67° C | 51% | 1009.3 hPa | 0 mm | - | - | - |
| 1777987218 | 11.67° C | 52% | 1008.8 hPa | 0 mm | - | - | - |
| 1777986618 | 11.67° C | 53% | 1008.4 hPa | 0 mm | - | - | - |
| 1777986018 | 11.67° C | 53% | 1008.4 hPa | 0 mm | - | - | - |
| 1777985418 | 11.67° C | 53% | 1008.3 hPa | 0 mm | - | - | - |
| 1777984818 | 11.67° C | 53% | 1008.1 hPa | 0 mm | - | - | - |
| 1777984218 | 11.67° C | 54% | 1008.4 hPa | 0 mm | - | - | - |
| 1777983618 | 12.22° C | 54% | 1008.2 hPa | 0 mm | - | - | - |
| 1777983018 | 12.22° C | 54% | 1007.9 hPa | 0 mm | - | - | - |
| 1777982417 | 12.22° C | 54% | 1008 hPa | 0 mm | - | - | - |
| 1777981817 | 12.22° C | 54% | 1007.9 hPa | 0 mm | - | - | - |
| 1777981218 | 12.22° C | 54% | 1007.5 hPa | 0 mm | - | - | - |
| 1777980618 | 12.78° C | 55% | 1007.9 hPa | 0 mm | - | - | - |
| 1777980018 | 12.78° C | 55% | 1007.9 hPa | 0 mm | - | - | - |
| 1777979417 | 13.33° C | 55% | 1007.9 hPa | 0 mm | - | - | - |
| 1777978817 | 13.33° C | 55% | 1008.1 hPa | 0 mm | - | - | - |
| 1777978218 | 13.89° C | 55% | 1008.2 hPa | 0 mm | - | - | - |
| 1777977618 | 14.44° C | 55% | 1008.4 hPa | 0 mm | - | - | - |
* Rain latest hour (hover to see other rain measurements)
** Current wind speed in m/s (hover to see current wind gust speed)